Regional Weather Roundup
Issued by NWS Burlington, VT

Home | Current Version | Previous Version | Text Only | Print | Product List | Glossary On
Versions: 1 2 3 4 5 6 7 8 9 10 11 12 13 14 15 16 17 18 19 20 21 22 23 24 25 26 27 28 29 30 31 32 33 34 35 36 37 38 39 40 41 42 43 44 45 46 47 48 49 50
000
ASUS41 KBTV 060330
RWRBTV
VERMONT REGIONAL WEATHER ROUNDUP
NATIONAL WEATHER SERVICE BURLINGTON VT
1100 PM EDT SUN JUL 05 2015

NOTE: "FAIR" INDICATES FEW OR NO CLOUDS BELOW 12,000 FEET WITH NO
SIGNIFICANT WEATHER AND/OR OBSTRUCTIONS TO VISIBILITY.

* THESE REPORTS ARE NOT UNDER NWS QUALITY CONTROL AND/OR DO NOT
  REPORT WEATHER SUCH AS PRECIPITATION AND FOG.

VTZ001>019-060400-
_____VERMONT_____


CITY           SKY/WX    TMP DP  RH WIND       PRES   REMARKS
BURLINGTON     CLEAR     66  61  84 CALM      30.13R
MONTPELIER     CLEAR     59  57  93 CALM      30.20R
MORRISVILLE    PTCLDY    62  58  86 CALM      30.16R
ST. JOHNSBURY*   N/A     62  57  83 MISG      30.13R
LYNDONVILLE*   FAIR      61  56  83 CALM      30.18S
MIDDLEBURY*    CLOUDY    67  66  97 CALM      30.13R
RUTLAND*       CLEAR     63  55  77 SE6       30.16R
SPRINGFIELD    CLEAR     62  60  93 CALM      30.15R
HIGHGATE*      FAIR      61  60  95 CALM      30.12S
NEWPORT*       FAIR      60  57  89 SW5       30.16R
BENNINGTON     CLEAR     60  56  86 S3        30.16R
GALLUP MILLS*    N/A     55 N/A N/A MISG        N/A
MT. MANSFIELD*   N/A     57 N/A N/A NW8         N/A

_____LAKE CHAMPLAIN_____


CITY           SKY/WX    TMP DP  RH WIND       PRES   REMARKS
BURTON ISLAND*   N/A     70  64  83 S3          N/A
COLCHESTER RF*   N/A     68  64  88 SE1         N/A
DIAMOND ISL*     N/A     70  64  83 NE3         N/A

$$

NYZ007-026>031-035-052-083-060400-
_____NORTHERN NEW YORK_____


CITY           SKY/WX    TMP DP  RH WIND       PRES   REMARKS
PLATTSBURGH    CLEAR     63  62  97 CALM      30.11S FOG
SARANAC LAKE   CLEAR     54  52  93 CALM      30.17R
MASSENA        CLEAR     66  61  84 SW3       30.13R
OGDENSBURG*    CLEAR     63  59  88 S3        30.12S
POTSDAM*       CLEAR     64  63  94 S5        30.13S
STARK FALLS*     N/A     64 N/A N/A SE3         N/A
WATERTOWN      CLEAR     60  56  86 CALM      30.13S
FT DRUM        CLEAR     63  58  85 S6        30.13F
ALBANY         PTCLDY    69  59  70 CALM      30.14R
GLENS FALLS    PTCLDY    65  62  90 CALM      30.13R

$$
NHZ002-005-011-060400-
_____NEW HAMPSHIRE_____


CITY           SKY/WX    TMP DP  RH WIND       PRES   REMARKS
LEBANON        CLOUDY    67  62  84 CALM      30.13R
KEENE          CLEAR     63  57  82 CALM      30.15S
MT WASHINGTON  FOG       48  48 100 NW33        N/A  VSB 1/16
PLYMOUTH       FAIR      60  60 100 CALM      30.14R
WHITEFIELD     CLEAR     59  55  87 CALM      30.16R

$$

_____REGIONAL QUEBEC LOCATIONS_____


CITY           SKY/WX    TMP DP  RH WIND       PRES   REMARKS
MONTREAL       CLEAR     72  61  68 W3        30.10S
QUEBEC CITY    MOCLDY    66  59  77 SW6       30.08R
SHERBROOKE     CLEAR     63  59  88 SW3       30.13R

_____REGIONAL ONTARIO LOCATIONS_____


CITY           SKY/WX    TMP DP  RH WIND       PRES   REMARKS
OTTAWA         PTCLDY    68  63  83 S6        30.11S

______KEY______
VSB  - VISIBILITY IN MILES
WCI  - WIND CHILL INDEX
HX   - HEAT INDEX
$$
NNNN


USA.gov is the U.S. government's official web portal to all federal, state and local government web resources and services.